#timestamp,LO_Frequency,Hit,StdDev 
1627981215.8,286046998.9,N
1627981235.6,286047001.2,N
1627981255.4,286046998.1,N
1627981275.3,286046996.9,N
1627981295.1,286046993.6,N
1627981315.9,286046990.5,N
1627981335.7,286046990.0,N
1627981355.5,286046989.3,N
1627981375.4,286046990.0,N
1627981395.2,286046987.2,N
1627981415.1,286046989.5,N
1627981416.0,286046989.5,N
1627981435.8,286046990.4,N
1627981455.6,286046992.4,N
1627981475.5,286046990.8,N
1627981495.3,286046991.1,N
1627981515.1,286046989.6,N
1627981535.9,286046986.0,N
1627981555.7,286046982.4,N
1627981575.6,286046978.9,Y
1627981595.4,286046987.2,P
1627981615.2,286046988.1,P
1627981635.1,286046987.5,P
1627981636.0,286046987.5,Y
1627981655.8,286046999.3,P
1627981675.7,286047000.6,N
1627981695.5,286047002.2,N
1627981715.3,286046999.7,N
1627981735.2,286047000.0,N
1627981755.0,286047001.1,N
1627981755.9,286047001.1,N
1627981775.8,286046998.5,N
1627981795.6,286046999.0,N
1627981815.4,286046998.4,N
1627981835.3,286047002.0,N
1627981855.1,286047003.8,N
1627981875.8,286047005.5,N
1627981895.7,286047005.4,N
1627981915.5,286047007.6,N
1627981935.4,286047004.5,N
1627981955.2,286047008.0,N
1627981975.0,286047012.7,N
1627981975.9,286047012.7,N
1627981995.8,286047014.0,N
1627982015.6,286047014.1,N
1627982035.5,286047015.8,N
1627982055.3,286047017.1,N
1627982075.1,286047015.3,N
1627982095.9,286047011.4,N
1627982115.7,286047008.7,N
1627982135.5,286047001.3,N
1627982155.4,286047005.4,N
1627982175.2,286047010.4,N
1627982195.1,286047006.2,N
1627982196.0,286047006.2,N
1627982215.8,286047005.3,N
1627982235.6,286047002.8,N
1627982255.5,286047000.1,N
1627982275.3,286047005.2,N
1627982295.2,286047010.0,N
1627982315.0,286047012.1,N
1627982315.9,286047012.1,N
1627982335.7,286047012.0,N
1627982355.6,286047008.0,N
1627982375.5,286047003.3,N
1627982395.3,286046998.8,N
1627982415.1,286046996.1,N
1627982435.9,286046991.9,N
1627982455.7,286046993.0,N
1627982475.6,286046987.7,N
1627982495.4,286046986.8,N
1627982515.2,286046983.0,N
1627982535.1,286046977.9,N
1627982536.0,286046977.9,N
1627982555.8,286046971.6,N
1627982575.6,286046971.7,N
1627982595.5,286046974.6,N
1627982615.3,286046979.5,N
1627982635.1,286046982.9,N
1627982655.9,286046986.6,N
1627982675.7,286046987.8,N
1627982695.6,286046986.7,N
1627982715.4,286046980.5,N
1627982735.2,286046981.2,N
1627982755.1,286046982.0,N
1627982756.0,286046982.0,N
1627982775.8,286046978.8,N
1627982795.7,286046977.1,N
1627982815.5,286046977.0,N
1627982835.3,286046978.8,N
1627982855.2,286046980.9,N
1627982875.9,286046978.9,N
1627982895.7,286046977.4,N
1627982915.6,286046978.2,N
1627982935.4,286046973.2,Y
1627982955.3,286046985.5,P
1627982975.1,286046986.6,P
1627982976.0,286046986.6,P
1627982995.8,286046979.5,Y
1627983015.7,286046992.2,P
1627983035.5,286046988.9,P
1627983055.3,286046986.9,P
1627983075.2,286046990.0,Y
1627983095.0,286047001.1,P
1627983095.9,286047001.1,N
1627983115.8,286047000.3,N
1627983135.6,286047000.0,N
1627983155.4,286047005.2,N
1627983175.3,286047008.2,N
1627983195.1,286047009.8,N
1627983215.9,286047014.0,N
1627983235.7,286047011.6,N
1627983255.5,286047009.4,N
1627983275.4,286047011.6,N
1627983295.2,286047009.8,N
1627983315.1,286047011.9,N
1627983316.0,286047011.9,N
1627983335.8,286047013.6,N
1627983355.6,286047010.0,N
1627983375.5,286047010.1,N
1627983395.3,286047008.4,N
1627983415.1,286047007.3,N
1627983435.9,286047008.1,N
1627983455.7,286047007.8,N
1627983475.6,286047007.9,N
1627983495.4,286047007.8,N
1627983515.2,286047010.1,N
1627983535.1,286047007.8,N
1627983536.0,286047007.8,N
1627983555.8,286047008.1,N
1627983575.6,286047005.2,N
1627983595.5,286047000.5,N
1627983615.3,286046995.1,N
1627983635.2,286046990.6,N
1627983655.9,286046987.5,N
1627983675.7,286046984.3,N
1627983695.6,286046986.3,N
1627983715.4,286046986.0,N
1627983735.2,286046983.8,N
1627983755.1,286046983.8,N
1627983756.0,286046983.8,N
1627983775.8,286046985.6,N
1627983795.7,286046988.3,N
1627983815.5,286046989.9,N
1627983835.3,286046990.4,N
1627983855.2,286046992.2,N
1627983875.0,286046991.9,N
1627983875.9,286046991.9,N
1627983895.7,286046991.4,N
1627983915.6,286046988.6,N
1627983935.4,286046987.2,N
1627983955.3,286046990.0,N
1627983975.1,286046985.9,N
1627983995.8,286046986.2,N
1627984015.7,286046988.8,N
1627984035.5,286046990.2,N
1627984055.4,286046992.6,N
1627984075.2,286046988.6,N
1627984095.0,286046986.7,N
1627984095.9,286046986.7,N
1627984115.8,286046983.0,Y
1627984135.6,286046992.9,P
1627984155.5,286046996.2,N
1627984175.3,286046993.3,N
1627984195.1,286046990.8,Y
1627984215.9,286046991.7,P
1627984235.7,286046982.5,P
1627984255.5,286046978.1,P
1627984275.4,286046980.3,Y
1627984295.2,286046997.9,P
1627984315.1,286046995.7,N
1627984316.0,286046995.7,N
1627984335.8,286046986.9,N
1627984355.6,286046986.3,N
1627984375.5,286046985.5,N
1627984395.3,286046988.4,N
1627984415.1,286046989.1,N
1627984435.9,286046990.3,N
1627984455.7,286046987.3,N
1627984475.6,286046984.5,Y
1627984495.4,286046992.7,P
1627984515.2,286046991.5,P
1627984535.1,286046992.4,P
1627984536.0,286046992.4,Y
1627984555.8,286047006.8,P
1627984575.7,286047013.5,N
1627984595.5,286047016.5,N
1627984615.3,286047017.2,N
1627984635.2,286047016.7,N
1627984655.0,286047013.5,N
1627984655.9,286047013.5,N
1627984675.8,286047013.3,N
1627984695.6,286047017.0,N
1627984715.4,286047018.6,N
1627984735.3,286047016.7,N
1627984755.1,286047011.7,N
1627984775.8,286047009.8,N
1627984795.7,286047013.5,N
